RH
64 64 62 59 57 62 77 63 72 47 52 42 42 45 36 34 34 36 33 31 30 30 32 29 29 28 28 29 31 33 38 42 42 43 50 60 64 63 61 59 54 50 44 47
75 61 61 73 64 60 53 52 66 60 62 41 41 37 33 36 37 39 39 36 33 31 30 30 29 29 28 28 28 33 35 38 39 42 46 54 60 61 61 60 56 52 44 45
82 64 65 63 55 52 56 51 48 56 42 37 32 35 32 34 39 41 38 34 32 32 30 29 28 27 29 29 30 30 34 35 36 36 45 50 54 60 62 61 58 55 47 44
91 72 76 46 33 31 49 45 45 42 40 36 36 34 32 31 36 39 40 41 41 34 31 30 31 31 31 31 32 32 36 36 37 39 40 42 53 58 60 60 59 56 50 44
88 83 63 44 37 38 33 34 30 33 39 38 40 37 36 35 38 41 43 40 37 34 35 36 36 35 35 35 34 37 38 38 38 41 42 43 49 53 57 61 59 57 53 47
82 85 84 41 38 36 37 39 29 38 40 40 42 60 53 40 43 44 39 39 39 39 40 41 40 40 40 42 44 45 39 37 38 42 45 46 47 51 56 60 59 58 56 52
94 94 77 54 39 38 50 40 28 33 39 42 52 53 47 47 47 43 42 44 44 46 48 46 46 46 46 44 48 42 40 42 42 41 44 47 54 58 63 65 65 63 60 57
86 93 90 47 46 47 42 42 40 47 47 50 53 55 55 55 54 54 54 51 49 51 51 46 45 46 46 49 46 44 45 46 44 43 45 55 58 57 61 66 71 69 67 64
75 72 48 48 39 38 41 46 48 50 50 52 56 56 54 58 58 58 53 50 47 47 48 49 49 50 51 51 51 51 51 50 47 48 52 49 50 52 60 66 74 76 74 72
51 45 45 42 40 40 44 50 50 50 53 52 56 57 61 59 53 50 47 47 49 52 54 55 55 56 56 56 55 55 55 53 49 48 48 49 54 60 66 70 74 77 76 74
64 54 48 47 48 52 50 51 54 55 54 57 60 62 57 54 53 51 50 50 52 56 59 60 60 61 61 60 59 58 57 53 51 51 53 54 56 60 66 67 70 73 75 76
64 47 56 56 53 50 54 57 58 59 60 58 56 60 57 59 54 53 54 55 57 60 64 66 65 61 57 57 56 55 57 57 59 61 64 66 68 68 63 70 73 76 77 82
55 49 55 56 52 55 57 59 54 54 56 60 58 57 57 59 54 57 58 59 62 62 63 63 58 59 55 56 60 62 65 66 68 69 71 74 78 83 89 75 72 76 77 83
45 51 56 54 60 57 50 48 51 52 52 53 54 50 52 57 56 61 64 61 58 57 58 58 60 60 59 62 63 65 68 70 75 77 79 82 84 85 87 94 97 94 85 90
55 54 58 59 56 52 48 48 53 55 55 55 49 53 52 57 59 57 54 55 57 57 57 59 60 57 58 61 64 71 77 79 80 80 80 83 87 89 90 94 97 96 94 91
58 62 60 62 70 69 67 67 67 66 63 59 59 57 54 57 57 53 48 47 60 64 60 59 60 55 57 62 71 78 82 85 86 83 84 83 85 91 94 95 99 100 99 99
73 77 73 79 81 81 81 79 80 78 71 68 63 59 61 62 62 60 56 52 54 60 58 59 54 58 56 55 75 89 96 93 84 82 79 83 85 88 91 98 100 100 100 99
68 70 73 76 80 83 80 76 70 64 67 61 60 62 68 69 68 63 60 57 58 60 53 46 58 62 68 65 63 92 95 95 95 86 84 85 86 88 94 98 100 100 99 98
58 69 63 65 64 67 67 66 63 62 63 65 70 71 69 70 69 66 63 66 70 72 57 46 58 66 67 67 69 80 89 100 95 93 86 86 87 86 90 96 97 97 98 99
52 46 47 56 54 58 61 53 57 63 60 62 70 75 76 71 68 68 68 71 67 63 49 52 61 70 72 75 78 78 81 94 92 97 94 90 89 89 88 91 93 95 98 99
72 60 60 62 60 54 52 53 57 58 57 59 70 71 70 68 70 71 76 75 62 59 54 55 66 73 74 75 77 82 82 87 95 96 94 94 95 95 92 90 92 99 100 99
61 61 58 57 55 53 53 54 55 54 55 58 64 70 73 74 74 75 72 74 65 60 58 63 68 72 73 79 90 82 81 87 90 95 100 99 99 99 98 88 88 93 98 98
63 68 67 55 51 51 52 53 51 50 52 55 60 68 72 72 71 74 76 61 65 64 65 70 65 64 60 78 83 91 90 84 86 90 93 100 100 100 100 100 97 92 100 99
44 46 48 45 49 57 60 53 51 52 55 59 64 69 74 77 75 72 70 69 67 66 69 72 73 64 61 59 64 74 82 89 94 94 96 99 100 99 98 98 95 93 94 99
49 50 55 61 66 65 62 63 65 67 71 75 70 68 67 68 76 67 68 73 72 71 70 69 69 61 58 58 65 72 78 86 92 98 100 100 99 100 99 99 96 97 93 99
55 51 48 49 52 53 55 57 62 61 63 67 66 67 68 69 69 70 70 71 76 72 75 71 68 62 52 53 62 71 76 85 94 96 100 100 100 99 97 95 100 100 100 100
53 55 56 58 56 57 60 63 66 67 67 70 74 71 72 75 75 78 78 80 82 78 76 71 70 67 58 51 56 63 77 79 82 89 97 98 98 95 96 99 100 100 100 100
Wind_Speed
5 7 5 7 8 9 10 8 7 3 6 7 8 9 4 6 4 6 6 7 6 5 6 11 11 14 17 18 18 16 16 19 23 24 24 25 27 28 27 25 24 22 20 19
4 6 5 7 11 12 14 13 11 14 21 16 13 4 4 7 6 7 8 8 8 7 10 12 13 16 19 21 21 18 17 21 24 25 25 26 28 28 28 28 27 24 24 22
5 4 6 8 8 12 6 6 9 11 13 6 2 6 5 6 7 6 7 7 8 8 12 17 18 21 23 26 23 22 23 26 27 26 28 29 29 29 31 31 29 29 27 25
3 3 2 5 3 5 9 6 9 7 7 4 6 4 3 2 2 6 6 6 7 12 20 26 29 29 30 29 28 27 25 30 32 30 27 27 29 31 33 33 32 31 31 29
2 3 8 1 1 4 3 3 3 2 5 4 6 5 5 2 2 4 7 12 18 25 30 31 32 33 31 34 33 28 30 33 31 29 30 27 28 30 32 34 34 33 33 31
0 2 5 1 1 3 2 1 1 6 4 1 2 3 4 4 6 8 17 20 22 26 30 30 29 27 29 29 25 24 33 33 31 27 25 28 30 29 30 31 34 33 34 33
4 3 7 5 4 3 2 3 3 4 4 2 2 5 6 7 9 15 19 23 25 25 25 29 31 27 26 29 23 31 31 28 28 31 27 26 24 23 25 27 29 31 32 33
4 4 9 5 3 5 4 3 1 1 1 3 6 7 7 9 9 10 12 18 22 21 23 30 30 24 25 24 28 27 26 29 33 30 25 19 17 19 19 21 23 28 29 32
9 6 4 6 1 3 2 3 2 2 5 6 7 7 9 7 7 8 17 19 21 20 21 24 24 24 24 28 31 31 28 30 26 19 16 18 18 18 17 16 17 21 22 21
1 4 6 4 3 2 3 4 5 5 5 5 7 6 6 8 10 12 17 19 21 21 22 24 26 26 25 28 29 29 28 26 21 19 20 18 18 17 17 17 15 17 18 18
5 6 8 4 4 4 6 5 5 5 3 5 7 7 6 8 8 13 17 19 20 20 20 22 26 28 29 29 26 25 24 21 18 16 16 16 16 16 18 20 17 18 19 19
14 11 6 9 6 6 5 5 5 4 6 6 5 7 5 6 11 14 17 22 22 22 20 23 26 27 27 24 20 18 17 18 16 15 15 15 16 19 16 17 16 17 20 20
12 8 7 7 4 3 3 5 3 4 6 5 7 6 8 7 12 18 20 20 20 23 27 27 27 25 22 19 16 15 14 15 14 14 15 14 14 13 16 19 15 15 15 16
9 2 7 1 3 5 3 5 6 7 8 8 8 14 14 11 17 15 16 21 25 26 26 24 24 23 20 16 15 14 14 14 14 14 14 15 15 14 13 16 14 18 17 16
5 2 3 6 4 4 6 6 5 5 6 8 14 14 14 12 12 18 24 25 25 25 26 27 25 23 17 13 12 13 14 15 14 14 15 16 16 17 16 16 18 19 22 21
1 2 4 4 6 6 5 6 5 6 6 9 11 17 20 21 22 24 26 25 20 18 27 28 28 23 17 11 10 11 14 15 14 13 14 14 14 14 16 16 17 16 16 18
3 4 4 5 5 6 6 6 6 7 10 11 16 20 20 21 21 19 21 25 27 27 29 28 26 24 16 12 12 11 13 19 20 16 17 17 16 16 16 15 15 15 17 18
1 3 5 6 6 7 8 10 13 15 12 21 25 23 18 14 12 20 23 27 28 30 31 28 21 18 20 17 13 17 17 22 24 21 19 19 18 17 15 14 16 17 19 21
4 6 10 10 12 10 10 13 17 20 24 23 20 19 21 21 21 24 26 23 19 17 29 28 23 24 23 22 21 25 28 27 26 26 23 20 19 19 18 16 17 16 18 19
9 14 16 14 19 14 13 19 21 20 24 24 24 22 21 23 23 24 24 23 25 26 30 29 25 25 24 23 21 22 24 24 25 26 26 26 25 22 21 17 16 19 17 20
12 15 16 17 19 23 23 21 18 19 25 24 20 22 23 28 26 25 19 14 32 27 28 26 25 22 23 24 24 23 21 23 24 24 23 24 25 26 26 22 17 16 18 18
17 16 18 21 19 20 21 22 22 25 25 24 23 23 23 26 26 25 29 26 34 32 29 23 22 24 24 23 22 21 22 23 24 24 23 22 22 21 21 25 22 20 17 16
19 20 21 21 20 22 24 25 27 29 27 27 25 25 25 26 25 17 12 32 24 26 27 28 24 22 21 19 20 20 21 21 22 22 22 21 20 22 22 21 22 22 19 18
19 21 22 28 27 20 14 27 30 29 30 31 30 31 29 24 26 25 27 32 31 29 26 27 27 23 18 18 18 19 20 20 21 21 22 20 21 21 22 22 23 21 20 20
22 24 25 22 17 17 23 27 27 27 27 26 29 31 29 27 22 31 31 31 31 31 27 28 24 19 18 17 18 19 19 20 21 20 21 22 23 20 21 22 23 23 21 21
21 20 22 24 24 26 26 23 18 24 24 21 25 25 27 27 28 29 31 33 30 31 27 26 25 21 18 17 19 19 19 21 21 21 21 21 22 22 20 21 24 23 22 21
23 23 20 20 23 22 22 22 20 21 22 20 20 28 26 25 28 27 28 30 29 30 30 29 27 24 21 19 20 20 20 18 16 17 19 21 20 21 22 21 22 25 24 23
Wind_Direction
261 258 243 231 230 222 209 210 199 199 247 240 278 293 300 265 342 344 331 330 324 312 297 310 315 325 327 321 326 321 279 270 276 284 277 268 263 263 261 258 257 260 259 256
282 279 268 260 245 229 234 236 250 259 274 278 277 300 308 311 325 319 309 314 319 309 308 308 308 312 314 313 315 310 294 280 281 280 277 270 265 263 261 259 257 256 254 255
260 315 329 292 235 223 197 212 209 231 242 272 282 314 295 313 321 310 309 298 306 303 296 303 306 308 300 302 302 301 288 292 287 282 277 271 268 262 258 253 256 253 253 251
265 7 264 235 245 194 189 231 229 255 244 244 262 269 292 6 309 314 298 296 314 308 309 310 312 313 311 304 297 301 302 304 302 279 276 279 272 263 258 253 252 253 253 251
219 227 295 6 234 144 170 275 323 109 66 65 24 359 285 305 267 253 316 306 296 307 310 308 306 311 313 308 306 300 305 309 307 297 282 279 274 268 264 256 254 253 255 255
43 232 249 311 223 113 85 243 21 79 58 45 13 290 276 320 313 292 288 295 297 307 307 302 304 309 307 302 299 298 307 307 308 302 293 283 278 276 273 262 259 261 260 258
227 257 285 258 173 141 159 211 309 331 294 277 245 225 269 290 298 295 295 303 312 307 301 304 311 311 302 303 299 308 310 306 307 307 293 288 279 279 278 274 267 264 262 264
183 211 261 158 107 174 206 250 305 64 119 262 253 271 276 289 295 294 297 311 314 311 309 311 315 315 308 301 310 312 310 312 313 303 294 278 280 282 279 277 271 269 267 267
186 208 264 188 221 230 356 15 24 325 284 274 279 281 290 295 298 301 309 314 316 312 311 309 313 315 308 310 316 316 314 313 307 299 288 285 281 276 270 267 267 270 264 263
169 237 231 189 237 114 162 204 243 253 270 278 284 295 295 301 306 313 317 320 320 317 317 314 317 315 311 317 319 315 312 311 303 303 304 302 294 281 270 264 256 262 256 257
263 290 300 316 7 333 332 343 9 5 346 308 299 307 306 311 314 318 316 319 319 312 306 307 314 315 318 322 321 314 312 309 306 307 306 305 299 295 286 279 274 267 266 263
267 283 272 292 284 309 4 345 322 339 321 313 296 301 308 307 312 315 317 322 322 318 312 311 316 320 327 328 323 318 314 316 316 312 310 309 307 304 295 288 287 279 275 270
265 280 272 261 262 68 315 314 310 303 301 299 315 309 312 301 312 318 316 315 312 311 314 318 323 325 332 332 327 322 316 318 318 315 313 313 312 310 309 314 307 296 283 283
279 218 268 102 284 315 309 302 317 313 313 310 310 323 321 314 319 313 304 311 320 323 324 324 322 323 336 335 334 333 329 325 321 319 318 312 305 299 301 298 301 305 308 303
159 125 218 261 288 312 322 329 326 312 304 306 317 314 312 308 304 306 313 320 322 320 324 328 323 322 330 329 334 337 334 328 323 319 315 310 309 305 301 299 298 302 310 311
215 344 12 6 326 323 319 318 307 295 294 295 298 302 304 307 304 307 314 318 316 311 315 317 314 317 319 309 316 329 327 325 323 321 319 314 313 310 308 308 299 294 294 295
47 6 9 332 321 306 290 279 268 274 277 275 280 294 297 298 298 298 305 316 318 313 315 312 307 310 305 295 304 316 319 323 320 310 301 300 300 303 309 311 302 297 294 307
335 289 275 259 268 269 280 274 274 277 273 285 296 299 296 294 293 301 306 311 311 311 311 318 317 313 311 303 293 301 302 301 295 294 295 298 300 300 298 303 301 300 302 308
346 284 291 278 274 265 270 277 286 292 297 297 289 288 289 287 287 289 297 294 291 295 301 315 312 312 309 306 298 293 285 276 281 286 286 289 294 298 295 297 298 299 301 302
324 312 304 296 300 284 269 282 284 285 293 297 292 290 288 287 290 287 288 281 284 285 302 305 305 302 303 306 306 303 288 276 273 277 283 288 287 288 294 289 295 297 293 301
288 286 275 269 272 276 277 284 283 282 284 283 276 279 281 287 286 285 281 284 290 294 299 301 300 300 305 307 306 306 300 292 284 279 280 279 280 285 288 289 285 289 293 293
274 270 276 282 280 283 284 289 288 286 287 285 279 274 275 279 281 281 280 267 286 299 301 298 301 304 311 314 304 298 297 296 290 283 276 279 280 282 281 286 285 284 288 288
272 265 263 268 273 274 284 288 288 290 290 285 281 277 273 274 278 279 282 291 290 294 295 294 298 305 313 309 305 300 297 296 293 291 290 282 277 285 288 292 288 284 282 281
265 265 263 270 269 269 271 275 281 282 280 280 277 274 274 277 280 277 279 283 289 298 295 292 296 302 303 304 308 309 309 306 302 300 297 291 287 292 300 293 292 282 273 268
268 268 267 265 264 266 267 266 267 271 273 273 276 278 278 278 261 287 291 288 291 293 290 290 292 297 299 302 304 308 311 312 312 307 302 297 297 291 292 291 287 284 270 265
272 273 276 275 270 271 270 272 266 271 273 274 279 283 286 286 286 288 290 291 291 293 282 285 288 289 291 296 300 303 311 314 312 312 306 302 303 302 299 293 286 286 274 262
276 276 276 275 273 270 267 264 264 268 271 265 270 283 285 284 284 284 287 285 288 290 283 285 285 284 287 293 295 297 294 300 309 307 309 306 302 301 298 295 290 289 279 257